Weather History for KJKA - March, 2013

Change the Weather History Date:

Wednesday, March 13, 2013

  Actual Average (KPNS) Record (KPNS)
Temperature  
Mean Temperature 50 °F 60 °F  
Max Temperature 64 °F 69 °F 84 °F (1952)
Min Temperature 37 °F 51 °F 28 °F (1932)
Degree Days  
Heating Degree Days 14 6  
Month to date heating degree days 92  
Since 1 July heating degree days 1400  
Cooling Degree Days 0 1  
Month to date cooling degree days 12  
Year to date cooling degree days 26  
Moisture  
Dew Point 27 °F    
Average Humidity 44    
Maximum Humidity 93    
Minimum Humidity 11    
Precipitation  
Precipitation 0.03 in 0.18 in 4.97 in (1986)
Month to date precipitation 2.52  
Year to date precipitation 12.21  
Snow  
Snow 0.00 in 0.00 in - ()
Month to date snowfall 0.0  
Since 1 July snowfall 0.0  
Snow Depth -    
Sea Level Pressure  
Sea Level Pressure 30.28 in    
Wind  
Wind Speed 4 mph (NW)    
Max Wind Speed 16 mph    
Max Gust Speed 22 mph    
Visibility 10 miles    
Events      
T = Trace of Precipitation, MM = Missing Value Source: NWS Daily Summary

Daily Weather History Graph

Daily Weather History Graph

Search for Another Location

Airport or City:

Trip Planner

Search our weather history database for the weather conditions in past years. The results will help you decide how hot, cold, wet, or windy it might be!

Date:

Astronomy

Mar. 13, 2013 Rise Set
Actual Time 7:02 AM CDT 6:57 PM CDT
Civil Twilight 6:38 AM CDT 7:21 PM CDT
Nautical Twilight 6:10 AM CDT 7:49 PM CDT
Astronomical Twilight 5:43 AM CDT 8:17 PM CDT
Moon 7:53 AM CDT (3/13) 9:00 PM CDT (3/13)
Length of Visible Light 12h 43m
Length of Day
11h 55m
Waxing Crescent, 4% of the Moon is Illuminated
Mar 13
Waxing Crescent
Mar 19
First Quarter
Mar 27
Full
Apr 2
Last Quarter
Apr 10
New

Hourly Weather History & Observations

Time (CDT) Temp. Windchill Dew Point Humidity Pressure Visibility Wind Dir Wind Speed Gust Speed Precip Events Conditions
12:15 AM 44.6 °F - 41.0 °F 87% 30.20 in 10.0 mi Calm Calm - N/A   Clear
12:55 AM 44.6 °F - 39.2 °F 81% 30.20 in 10.0 mi Calm Calm - N/A   Clear
1:15 AM 44.6 °F - 39.2 °F 81% 30.20 in 10.0 mi Calm Calm - N/A   Clear
1:35 AM 42.8 °F - 39.2 °F 87% 30.20 in 10.0 mi Calm Calm - N/A   Clear
1:55 AM 42.8 °F 41.1 °F 37.4 °F 81% 30.20 in 10.0 mi NNW 3.5 mph - N/A   Clear
2:35 AM 42.8 °F 41.1 °F 37.4 °F 81% 30.21 in 10.0 mi NNW 3.5 mph - N/A   Clear
2:55 AM 44.6 °F 43.1 °F 35.6 °F 71% 30.21 in 10.0 mi NNW 3.5 mph - N/A   Clear
3:15 AM 42.8 °F - 35.6 °F 76% 30.21 in 10.0 mi Calm Calm - N/A   Clear
3:55 AM 42.8 °F - 35.6 °F 76% 30.22 in 10.0 mi Calm Calm - N/A   Clear
4:15 AM 39.2 °F - 35.6 °F 87% 30.23 in 10.0 mi Calm Calm - N/A   Clear
4:35 AM 41.0 °F - 35.6 °F 81% 30.23 in 10.0 mi Calm Calm - N/A   Clear
4:55 AM 41.0 °F - 35.6 °F 81% 30.24 in 10.0 mi Calm Calm - N/A   Clear
5:15 AM 37.4 °F - 35.6 °F 93% 30.24 in 10.0 mi Calm Calm - N/A   Clear
5:35 AM 41.0 °F - 35.6 °F 81% 30.25 in 10.0 mi Calm Calm - N/A   Clear
5:55 AM 39.2 °F - 35.6 °F 87% 30.25 in 10.0 mi Calm Calm - N/A   Clear
6:15 AM 41.0 °F - 35.6 °F 81% 30.26 in 10.0 mi Calm Calm - N/A   Unknown
7:55 AM 46.4 °F 44.3 °F 35.6 °F 66% 30.31 in 10.0 mi NNW 4.6 mph - N/A   Clear
8:15 AM 48.2 °F - 35.6 °F 62% 30.31 in 10.0 mi NNW 4.6 mph - N/A   Clear
8:35 AM 50.0 °F - 35.6 °F 58% 30.32 in 10.0 mi NNW 5.8 mph - N/A   Clear
8:55 AM 51.8 °F - 35.6 °F 54% 30.31 in 10.0 mi NNW 4.6 mph - N/A   Clear
9:15 AM 55.4 °F - 35.6 °F 47% 30.32 in 10.0 mi NNW 6.9 mph - N/A   Clear
9:35 AM 59.0 °F - 35.6 °F 42% 30.32 in 10.0 mi NNW 5.8 mph - N/A   Clear
9:55 AM 59.0 °F - 32.0 °F 36% 30.33 in 10.0 mi North 6.9 mph - N/A   Clear
10:15 AM 60.8 °F - 30.2 °F 31% 30.33 in 10.0 mi NW 10.4 mph 17.3 mph N/A   Clear
10:35 AM 60.8 °F - 30.2 °F 31% 30.33 in 10.0 mi NNW 11.5 mph 16.1 mph N/A   Clear
10:55 AM 62.6 °F - 30.2 °F 30% 30.33 in 10.0 mi NNW 12.7 mph 19.6 mph N/A   Clear
11:35 AM 62.6 °F - 30.2 °F 30% 30.33 in 10.0 mi North 11.5 mph 18.4 mph N/A   Clear
12:15 PM 62.6 °F - 32.0 °F 32% 30.33 in 10.0 mi NW 9.2 mph - N/A   Clear
12:35 PM 62.6 °F - 32.0 °F 32% 30.32 in 10.0 mi NNW 6.9 mph - N/A   Clear
12:55 PM 64.4 °F - 32.0 °F 30% 30.31 in 10.0 mi NW 8.1 mph 17.3 mph N/A   Clear
1:15 PM 64.4 °F - 32.0 °F 30% 30.30 in - NW 11.5 mph 18.4 mph 0.03 in   Clear
1:35 PM 64.4 °F - 32.0 °F 30% 30.29 in 10.0 mi North 9.2 mph 16.1 mph 0.03 in   Clear
1:55 PM 64.4 °F - 28.4 °F 26% 30.28 in 10.0 mi WNW 9.2 mph 16.1 mph 0.03 in   Clear
2:15 PM 64.4 °F - 24.8 °F 22% 30.27 in 10.0 mi NW 11.5 mph 21.9 mph N/A   Clear
2:35 PM 64.4 °F - 21.2 °F 19% 30.26 in 10.0 mi WNW 15.0 mph 20.7 mph N/A   Clear
2:55 PM 64.4 °F - 19.4 °F 18% 30.26 in 10.0 mi WNW 13.8 mph 20.7 mph N/A   Clear
3:15 PM 64.4 °F - 14.0 °F 14% 30.26 in 10.0 mi NW 12.7 mph 18.4 mph N/A   Clear
3:35 PM 64.4 °F - 10.4 °F 12% 30.25 in 10.0 mi NW 16.1 mph 19.6 mph N/A   Clear
3:55 PM 64.4 °F - 10.4 °F 12% 30.25 in 10.0 mi NW 15.0 mph 19.6 mph N/A   Clear
4:15 PM 64.4 °F - 12.2 °F 13% 30.25 in 10.0 mi NW 10.4 mph 17.3 mph N/A   Clear
4:35 PM 64.4 °F - 10.4 °F 12% 30.25 in 10.0 mi NW 13.8 mph 18.4 mph N/A   Clear
4:55 PM 64.4 °F - 8.6 °F 11% 30.25 in 10.0 mi NNW 11.5 mph 18.4 mph N/A   Clear
5:15 PM 64.4 °F - 10.4 °F 12% 30.25 in 10.0 mi NW 12.7 mph 17.3 mph N/A   Clear
5:35 PM 64.4 °F - 10.4 °F 12% 30.25 in 10.0 mi NW 13.8 mph 18.4 mph N/A   Clear
5:55 PM 62.6 °F - 10.4 °F 13% 30.25 in 10.0 mi NW 10.4 mph 20.7 mph N/A   Clear
6:15 PM 62.6 °F - 14.0 °F 15% 30.25 in 10.0 mi NW 9.2 mph - N/A   Clear
6:35 PM 62.6 °F - 14.0 °F 15% 30.27 in 10.0 mi NW 10.4 mph - N/A   Clear
6:55 PM 60.8 °F - 15.8 °F 17% 30.27 in 10.0 mi NW 5.8 mph - N/A   Clear
7:15 PM 59.0 °F - 17.6 °F 20% 30.28 in 10.0 mi NW 5.8 mph - N/A   Clear
7:35 PM 57.2 °F - 19.4 °F 23% 30.29 in 10.0 mi NW 5.8 mph - N/A   Clear
7:55 PM 55.4 °F - 21.2 °F 26% 30.29 in 10.0 mi NW 4.6 mph - N/A   Clear
8:15 PM 55.4 °F - 21.2 °F 26% 30.29 in 10.0 mi Calm Calm - N/A   Clear
8:35 PM 53.6 °F - 21.2 °F 28% 30.29 in 10.0 mi Calm Calm - N/A   Clear
8:55 PM 53.6 °F - 23.0 °F 30% 30.30 in 10.0 mi Calm Calm - N/A   Clear
9:15 PM 51.8 °F - 23.0 °F 33% 30.31 in 10.0 mi Calm Calm - N/A   Clear
9:35 PM 51.8 °F - 24.8 °F 35% 30.32 in 10.0 mi Calm Calm - N/A   Clear
9:55 PM 50.0 °F - 26.6 °F 40% 30.33 in 10.0 mi Calm Calm - N/A   Clear
10:15 PM 50.0 °F - 28.4 °F 43% 30.34 in 10.0 mi NW 3.5 mph - N/A   Clear
10:35 PM 50.0 °F - 28.4 °F 43% 30.35 in 10.0 mi Calm Calm - N/A   Clear
10:55 PM 44.6 °F - 32.0 °F 61% 30.36 in 10.0 mi Calm Calm - N/A   Clear
11:15 PM 42.8 °F - 30.2 °F 61% 30.36 in 10.0 mi Calm Calm - N/A   Clear
11:35 PM 44.6 °F - 32.0 °F 61% 30.36 in 10.0 mi Calm Calm - N/A   Clear
11:55 PM 41.0 °F - 32.0 °F 70% 30.36 in 10.0 mi Calm Calm - N/A   Clear